TimeEDT,TemperatureF,Dew PointF,Humidity,Sea Level PressureIn,VisibilityMPH,Wind Direction,Wind SpeedMPH,Gust SpeedMPH,PrecipitationIn,Events,Conditions,WindDirDegrees,DateUTC
12:52 AM,37.9,36.0,93,30.34,10.0,Calm,Calm,-,N/A,,Clear,0,2013-09-17 04:52:00
1:52 AM,37.0,35.1,93,30.36,10.0,Calm,Calm,-,N/A,,Clear,0,2013-09-17 05:52:00
2:52 AM,36.0,34.0,93,30.36,10.0,Calm,Calm,-,N/A,,Clear,0,2013-09-17 06:52:00
3:48 AM,35.6,33.8,93,30.36,4.0,Calm,Calm,-,N/A,,Scattered Clouds,0,2013-09-17 07:48:00
3:52 AM,36.0,34.0,93,30.37,4.0,Calm,Calm,-,N/A,,Scattered Clouds,0,2013-09-17 07:52:00
4:52 AM,35.1,34.0,96,30.39,8.0,Calm,Calm,-,N/A,,Partly Cloudy,0,2013-09-17 08:52:00
5:32 AM,35.6,33.8,93,30.39,2.5,Calm,Calm,-,N/A,,Mostly Cloudy,0,2013-09-17 09:32:00
5:37 AM,35.6,33.8,93,30.39,1.2,Calm,Calm,-,N/A,,Mostly Cloudy,0,2013-09-17 09:37:00
5:52 AM,35.1,33.1,92,30.41,1.0,Calm,Calm,-,N/A,,Mist,0,2013-09-17 09:52:00
6:01 AM,35.6,33.8,93,30.40,0.8,Calm,Calm,-,N/A,,Mist,0,2013-09-17 10:01:00
6:19 AM,35.6,33.8,93,30.40,0.2,Calm,Calm,-,N/A,Fog,Fog,0,2013-09-17 10:19:00
6:52 AM,34.0,34.0,100,30.43,0.2,Calm,Calm,-,N/A,Fog,Fog,0,2013-09-17 10:52:00
7:52 AM,35.1,34.0,96,30.45,0.2,Calm,Calm,-,N/A,Fog,Fog,0,2013-09-17 11:52:00
8:07 AM,35.6,35.6,100,30.44,0.5,Calm,Calm,-,N/A,Fog,Fog,0,2013-09-17 12:07:00
8:16 AM,37.4,35.6,93,30.44,0.8,Calm,Calm,-,N/A,,Overcast,0,2013-09-17 12:16:00
8:29 AM,37.4,37.4,100,30.44,0.2,Calm,Calm,-,N/A,Fog,Fog,0,2013-09-17 12:29:00
8:37 AM,37.4,37.4,100,30.45,1.2,Calm,Calm,-,N/A,,Overcast,0,2013-09-17 12:37:00
8:41 AM,39.2,37.4,93,30.44,2.0,Calm,Calm,-,N/A,,Overcast,0,2013-09-17 12:41:00
8:49 AM,39.2,39.2,100,30.45,7.0,Calm,Calm,-,N/A,,Mostly Cloudy,0,2013-09-17 12:49:00
8:52 AM,41.0,37.9,89,30.47,10.0,Calm,Calm,-,N/A,,Mostly Cloudy,0,2013-09-17 12:52:00
9:02 AM,42.8,39.2,87,30.45,10.0,Calm,Calm,-,N/A,,Scattered Clouds,0,2013-09-17 13:02:00
9:52 AM,48.0,37.0,66,30.47,10.0,Calm,Calm,-,N/A,,Clear,0,2013-09-17 13:52:00
10:52 AM,53.1,35.1,50,30.46,10.0,Calm,Calm,-,N/A,,Clear,0,2013-09-17 14:52:00
11:52 AM,57.0,37.0,47,30.45,10.0,Calm,Calm,-,N/A,,Clear,0,2013-09-17 15:52:00
12:52 PM,57.9,36.0,44,30.44,10.0,West,4.6,-,N/A,,Clear,260,2013-09-17 16:52:00
1:52 PM,60.1,37.9,44,30.41,10.0,Variable,3.5,-,N/A,,Clear,0,2013-09-17 17:52:00
2:52 PM,60.1,36.0,41,30.39,10.0,WSW,3.5,-,N/A,,Clear,240,2013-09-17 18:52:00
3:52 PM,62.1,39.0,43,30.38,10.0,Variable,4.6,-,N/A,,Clear,0,2013-09-17 19:52:00
4:52 PM,62.1,39.0,43,30.37,10.0,Variable,4.6,-,N/A,,Clear,0,2013-09-17 20:52:00
5:52 PM,60.1,37.9,44,30.37,10.0,Variable,3.5,-,N/A,,Clear,0,2013-09-17 21:52:00
6:52 PM,53.1,43.0,69,30.37,10.0,Calm,Calm,-,N/A,,Clear,0,2013-09-17 22:52:00
7:52 PM,48.9,45.0,86,30.38,10.0,Calm,Calm,-,N/A,,Clear,0,2013-09-17 23:52:00
8:52 PM,46.0,43.0,89,30.39,10.0,Calm,Calm,-,N/A,,Clear,0,2013-09-18 00:52:00
9:52 PM,44.1,42.1,93,30.39,10.0,Calm,Calm,-,N/A,,Clear,0,2013-09-18 01:52:00
10:52 PM,43.0,41.0,93,30.38,10.0,Calm,Calm,-,N/A,,Clear,0,2013-09-18 02:52:00
11:52 PM,41.0,39.0,93,30.38,10.0,Calm,Calm,-,N/A,,Clear,0,2013-09-18 03:52:00